Time,TemperatureF,DewpointF,PressureIn,WindDirection,WindDirectionDegrees,WindSpeedMPH,WindSpeedGustMPH,Humidity,HourlyPrecipIn,Conditions,Clouds,dailyrainin,SoftwareType,DateUTC
2013-08-05 00:00:00,61.7,56.8,30.13,NNW,346,0.0,0.0,84,0.00,,,0.00,WUHU216DAVISVP2,2013-08-05 04:00:00,
2013-08-05 00:01:00,61.7,56.8,30.13,NNW,346,0.0,0.0,84,0.00,,,0.00,WUHU216DAVISVP2,2013-08-05 04:01:00,
2013-08-05 00:17:00,61.2,57.0,30.13,NNW,346,0.0,0.0,86,0.00,,,0.00,WUHU216DAVISVP2,2013-08-05 04:17:00,
2013-08-05 00:22:00,61.1,56.9,30.13,NNW,346,0.0,0.0,86,0.00,,,0.00,WUHU216DAVISVP2,2013-08-05 04:22:00,
2013-08-05 00:39:00,60.6,57.0,30.13,NNW,346,0.0,0.0,88,0.00,,,0.00,WUHU216DAVISVP2,2013-08-05 04:39:00,
2013-08-05 00:44:00,60.6,57.0,30.13,NNW,346,0.0,0.0,88,0.00,,,0.00,WUHU216DAVISVP2,2013-08-05 04:44:00,
2013-08-05 00:49:00,60.6,57.0,30.13,NNW,346,0.0,0.0,88,0.00,,,0.00,WUHU216DAVISVP2,2013-08-05 04:49:00,
2013-08-05 01:01:00,60.5,56.6,30.13,NNW,346,0.0,0.0,87,0.00,,,0.00,WUHU216DAVISVP2,2013-08-05 05:01:00,
2013-08-05 01:06:00,60.4,56.5,30.13,NNW,346,0.0,0.0,87,0.00,,,0.00,WUHU216DAVISVP2,2013-08-05 05:06:00,
2013-08-05 01:11:00,60.4,56.5,30.13,NNW,346,0.0,0.0,87,0.00,,,0.00,WUHU216DAVISVP2,2013-08-05 05:11:00,
2013-08-05 01:23:00,60.1,56.5,30.13,NNW,346,0.0,0.0,88,0.00,,,0.00,WUHU216DAVISVP2,2013-08-05 05:23:00,
2013-08-05 01:28:00,59.8,56.5,30.14,NNW,346,0.0,0.0,89,0.00,,,0.00,WUHU216DAVISVP2,2013-08-05 05:28:00,
2013-08-05 01:45:00,58.9,56.2,30.14,NNW,346,0.0,0.0,91,0.00,,,0.00,WUHU216DAVISVP2,2013-08-05 05:45:00,
2013-08-05 01:50:00,58.9,56.2,30.13,NNW,346,0.0,0.0,91,0.00,,,0.00,WUHU216DAVISVP2,2013-08-05 05:50:00,
2013-08-05 01:55:00,58.9,56.2,30.13,NNW,346,0.0,0.0,91,0.00,,,0.00,WUHU216DAVISVP2,2013-08-05 05:55:00,
2013-08-05 02:07:00,58.9,56.5,30.13,NNW,346,0.0,0.0,92,0.00,,,0.00,WUHU216DAVISVP2,2013-08-05 06:07:00,
2013-08-05 02:12:00,59.0,56.6,30.13,NNW,346,0.0,0.0,92,0.00,,,0.00,WUHU216DAVISVP2,2013-08-05 06:12:00,
2013-08-05 02:29:00,58.5,56.1,30.13,NNW,346,0.0,0.0,92,0.00,,,0.00,WUHU216DAVISVP2,2013-08-05 06:29:00,
2013-08-05 02:34:00,58.3,55.9,30.13,NNW,346,0.0,0.0,92,0.00,,,0.00,WUHU216DAVISVP2,2013-08-05 06:34:00,
2013-08-05 02:50:00,58.3,56.2,30.12,NNW,346,0.0,0.0,93,0.00,,,0.00,WUHU216DAVISVP2,2013-08-05 06:50:00,
2013-08-05 02:56:00,58.3,55.9,30.13,NNW,346,0.0,0.0,92,0.00,,,0.00,WUHU216DAVISVP2,2013-08-05 06:56:00,
2013-08-05 03:13:00,58.3,56.3,30.12,NNW,346,0.0,0.0,93,0.00,,,0.00,WUHU216DAVISVP2,2013-08-05 07:13:00,
2013-08-05 03:18:00,58.4,56.4,30.13,NNW,346,0.0,0.0,93,0.00,,,0.00,WUHU216DAVISVP2,2013-08-05 07:18:00,
2013-08-05 03:23:00,58.4,56.0,30.12,NNW,346,0.0,0.0,92,0.00,,,0.00,WUHU216DAVISVP2,2013-08-05 07:23:00,
2013-08-05 03:34:00,58.5,56.1,30.12,NE,41,0.0,0.0,92,0.00,,,0.00,WUHU216DAVISVP2,2013-08-05 07:34:00,
2013-08-05 03:39:00,58.6,56.2,30.12,NE,40,0.0,0.0,92,0.00,,,0.00,WUHU216DAVISVP2,2013-08-05 07:39:00,
2013-08-05 03:44:00,58.4,56.0,30.12,NE,40,0.0,0.0,92,0.00,,,0.00,WUHU216DAVISVP2,2013-08-05 07:44:00,
2013-08-05 03:56:00,58.3,55.9,30.11,NE,37,0.0,0.0,92,0.00,,,0.00,WUHU216DAVISVP2,2013-08-05 07:56:00,
2013-08-05 04:01:00,58.1,55.8,30.11,NE,37,0.0,0.0,92,0.00,,,0.00,WUHU216DAVISVP2,2013-08-05 08:01:00,
2013-08-05 04:06:00,57.9,55.8,30.11,NE,37,0.0,0.0,93,0.00,,,0.00,WUHU216DAVISVP2,2013-08-05 08:06:00,
2013-08-05 04:18:00,57.6,55.6,30.11,NE,37,0.0,0.0,93,0.00,,,0.00,WUHU216DAVISVP2,2013-08-05 08:18:00,
2013-08-05 04:23:00,57.6,55.6,30.11,NE,37,0.0,0.0,93,0.00,,,0.00,WUHU216DAVISVP2,2013-08-05 08:23:00,
2013-08-05 04:40:00,57.7,55.9,30.11,NE,37,0.0,0.0,94,0.00,,,0.00,WUHU216DAVISVP2,2013-08-05 08:40:00,
2013-08-05 04:46:00,57.7,55.9,30.11,NE,37,0.0,0.0,94,0.00,,,0.00,WUHU216DAVISVP2,2013-08-05 08:46:00,
2013-08-05 05:02:00,57.4,55.6,30.11,NE,37,0.0,0.0,94,0.00,,,0.00,WUHU216DAVISVP2,2013-08-05 09:02:00,
2013-08-05 05:07:00,57.3,55.5,30.10,NE,37,0.0,0.0,94,0.00,,,0.00,WUHU216DAVISVP2,2013-08-05 09:07:00,
2013-08-05 05:12:00,57.2,55.7,30.10,NE,37,0.0,0.0,95,0.00,,,0.00,WUHU216DAVISVP2,2013-08-05 09:12:00,
2013-08-05 05:24:00,56.6,55.1,30.11,NE,37,0.0,0.0,95,0.00,,,0.00,WUHU216DAVISVP2,2013-08-05 09:24:00,
2013-08-05 05:29:00,56.3,54.8,30.11,NE,37,0.0,0.0,95,0.00,,,0.00,WUHU216DAVISVP2,2013-08-05 09:29:00,
2013-08-05 05:46:00,56.2,54.7,30.11,NE,37,0.0,0.0,95,0.00,,,0.00,WUHU216DAVISVP2,2013-08-05 09:46:00,
2013-08-05 05:51:00,55.9,54.5,30.11,NE,37,0.0,0.0,95,0.00,,,0.00,WUHU216DAVISVP2,2013-08-05 09:51:00,
2013-08-05 06:08:00,55.4,54.0,30.10,NE,37,0.0,0.0,95,0.00,,,0.00,WUHU216DAVISVP2,2013-08-05 10:08:00,
2013-08-05 06:13:00,55.5,54.3,30.10,NE,37,0.0,0.0,96,0.00,,,0.00,WUHU216DAVISVP2,2013-08-05 10:13:00,
2013-08-05 06:18:00,55.5,54.3,30.10,NE,37,0.0,0.0,96,0.00,,,0.00,WUHU216DAVISVP2,2013-08-05 10:18:00,
2013-08-05 06:30:00,55.2,54.0,30.10,NE,38,0.0,0.0,96,0.00,,,0.00,WUHU216DAVISVP2,2013-08-05 10:30:00,
2013-08-05 06:35:00,54.9,53.7,30.10,NE,37,0.0,0.0,96,0.00,,,0.00,WUHU216DAVISVP2,2013-08-05 10:35:00,
2013-08-05 06:52:00,54.8,53.7,30.10,NE,37,0.0,0.0,96,0.00,,,0.00,WUHU216DAVISVP2,2013-08-05 10:52:00,
2013-08-05 06:57:00,54.9,53.8,30.10,NE,37,0.0,0.0,96,0.00,,,0.00,WUHU216DAVISVP2,2013-08-05 10:57:00,
2013-08-05 07:14:00,55.9,55.1,30.10,NE,38,0.0,0.0,97,0.00,,,0.00,WUHU216DAVISVP2,2013-08-05 11:14:00,
2013-08-05 07:19:00,56.3,55.5,30.11,NE,37,0.0,0.0,97,0.00,,,0.00,WUHU216DAVISVP2,2013-08-05 11:19:00,
2013-08-05 07:23:00,56.7,55.8,30.11,NE,37,0.0,0.0,97,0.00,,,0.00,WUHU216DAVISVP2,2013-08-05 11:23:00,
2013-08-05 07:35:00,58.2,57.0,30.11,NE,56,0.0,0.0,96,0.00,,,0.00,WUHU216DAVISVP2,2013-08-05 11:35:00,
2013-08-05 07:40:00,59.0,56.9,30.11,NE,56,0.0,0.0,93,0.00,,,0.00,WUHU216DAVISVP2,2013-08-05 11:40:00,
2013-08-05 07:46:00,59.5,56.9,30.11,NE,54,0.0,0.0,91,0.00,,,0.00,WUHU216DAVISVP2,2013-08-05 11:46:00,
2013-08-05 07:57:00,60.5,57.9,30.11,NE,54,0.0,0.0,91,0.00,,,0.00,WUHU216DAVISVP2,2013-08-05 11:57:00,
2013-08-05 08:02:00,61.2,57.9,30.11,NE,54,0.0,0.0,89,0.00,,,0.00,WUHU216DAVISVP2,2013-08-05 12:02:00,
2013-08-05 08:07:00,62.0,58.7,30.11,NE,54,0.0,0.0,89,0.00,,,0.00,WUHU216DAVISVP2,2013-08-05 12:07:00,
2013-08-05 08:19:00,63.7,58.5,30.11,East,88,0.0,1.0,83,0.00,,,0.00,WUHU216DAVISVP2,2013-08-05 12:19:00,
2013-08-05 08:25:00,63.6,58.4,30.11,ESE,103,0.0,1.0,83,0.00,,,0.00,WUHU216DAVISVP2,2013-08-05 12:25:00,
2013-08-05 08:41:00,63.4,58.5,30.10,ENE,71,0.0,0.0,84,0.00,,,0.00,WUHU216DAVISVP2,2013-08-05 12:41:00,
2013-08-05 08:46:00,63.3,58.7,30.10,East,81,0.0,0.0,85,0.00,,,0.00,WUHU216DAVISVP2,2013-08-05 12:46:00,
2013-08-05 09:03:00,65.3,60.0,30.11,ENE,75,0.0,2.0,83,0.00,,,0.00,WUHU216DAVISVP2,2013-08-05 13:03:00,
2013-08-05 09:08:00,65.5,59.6,30.11,ESE,106,0.0,2.0,81,0.00,,,0.00,WUHU216DAVISVP2,2013-08-05 13:08:00,
2013-08-05 09:13:00,65.9,60.3,30.10,SE,133,0.0,2.0,82,0.00,,,0.00,WUHU216DAVISVP2,2013-08-05 13:13:00,
2013-08-05 09:25:00,67.1,60.1,30.10,SSE,167,0.0,3.0,78,0.00,,,0.00,WUHU216DAVISVP2,2013-08-05 13:25:00,
2013-08-05 09:30:00,67.1,60.5,30.10,SE,141,0.0,3.0,79,0.00,,,0.00,WUHU216DAVISVP2,2013-08-05 13:30:00,
2013-08-05 09:47:00,68.5,61.1,30.10,SE,124,2.0,4.0,77,0.00,,,0.00,WUHU216DAVISVP2,2013-08-05 13:47:00,
2013-08-05 09:52:00,68.8,60.7,30.10,SSE,148,0.0,4.0,75,0.00,,,0.00,WUHU216DAVISVP2,2013-08-05 13:52:00,
2013-08-05 10:08:00,69.8,61.1,30.10,SE,129,1.0,4.0,74,0.00,,,0.00,WUHU216DAVISVP2,2013-08-05 14:08:00,
2013-08-05 10:14:00,70.1,61.0,30.09,SSE,154,0.0,4.0,73,0.00,,,0.00,WUHU216DAVISVP2,2013-08-05 14:14:00,
2013-08-05 10:19:00,69.9,61.2,30.10,ESE,109,0.0,4.0,74,0.00,,,0.00,WUHU216DAVISVP2,2013-08-05 14:19:00,
2013-08-05 10:31:00,70.5,61.2,30.09,SE,138,1.0,4.0,72,0.00,,,0.00,WUHU216DAVISVP2,2013-08-05 14:31:00,
2013-08-05 10:35:00,70.6,61.1,30.10,SSE,167,0.0,4.0,72,0.00,,,0.00,WUHU216DAVISVP2,2013-08-05 14:35:00,
2013-08-05 10:41:00,70.8,60.9,30.10,South,174,0.0,4.0,71,0.00,,,0.00,WUHU216DAVISVP2,2013-08-05 14:41:00,
2013-08-05 10:53:00,71.8,61.5,30.10,SE,145,0.0,3.0,70,0.00,,,0.00,WUHU216DAVISVP2,2013-08-05 14:53:00,
2013-08-05 10:58:00,72.5,62.2,30.10,East,80,0.0,3.0,70,0.00,,,0.00,WUHU216DAVISVP2,2013-08-05 14:58:00,
2013-08-05 11:15:00,73.6,63.4,30.10,South,188,0.0,3.0,70,0.00,,,0.00,WUHU216DAVISVP2,2013-08-05 15:15:00,
2013-08-05 11:20:00,74.1,63.1,30.10,ESE,113,0.0,3.0,68,0.00,,,0.00,WUHU216DAVISVP2,2013-08-05 15:20:00,
2013-08-05 11:37:00,74.7,62.4,30.09,SE,124,1.0,4.0,65,0.00,,,0.00,WUHU216DAVISVP2,2013-08-05 15:37:00,
2013-08-05 11:42:00,74.7,63.2,30.09,SW,214,0.0,4.0,67,0.00,,,0.00,WUHU216DAVISVP2,2013-08-05 15:42:00,
2013-08-05 11:58:00,74.7,62.8,30.08,SSW,212,1.0,4.0,66,0.00,,,0.00,WUHU216DAVISVP2,2013-08-05 15:58:00,
2013-08-05 12:04:00,74.4,62.1,30.08,WSW,240,0.0,4.0,65,0.00,,,0.00,WUHU216DAVISVP2,2013-08-05 16:04:00,
2013-08-05 12:20:00,76.3,64.3,30.07,South,188,2.0,6.0,66,0.00,,,0.00,WUHU216DAVISVP2,2013-08-05 16:20:00,
2013-08-05 12:25:00,76.3,63.5,30.06,SE,127,2.0,6.0,64,0.00,,,0.00,WUHU216DAVISVP2,2013-08-05 16:25:00,
2013-08-05 12:31:00,76.1,63.7,30.06,South,174,2.0,6.0,65,0.00,,,0.00,WUHU216DAVISVP2,2013-08-05 16:31:00,
2013-08-05 12:42:00,75.5,63.1,30.05,SSW,197,0.0,6.0,65,0.00,,,0.00,WUHU216DAVISVP2,2013-08-05 16:42:00,
2013-08-05 12:47:00,76.0,64.9,30.05,SW,217,1.0,6.0,68,0.00,,,0.00,WUHU216DAVISVP2,2013-08-05 16:47:00,
2013-08-05 12:53:00,76.2,63.8,30.05,SSE,158,2.0,7.0,65,0.00,,,0.00,WUHU216DAVISVP2,2013-08-05 16:53:00,
2013-08-05 13:04:00,76.6,64.2,30.04,SW,219,0.0,8.0,65,0.00,,,0.00,WUHU216DAVISVP2,2013-08-05 17:04:00,
2013-08-05 13:09:00,76.6,62.8,30.04,SW,222,2.0,8.0,62,0.00,,,0.00,WUHU216DAVISVP2,2013-08-05 17:09:00,
2013-08-05 13:14:00,76.6,64.2,30.03,SE,141,5.0,8.0,65,0.00,,,0.00,WUHU216DAVISVP2,2013-08-05 17:14:00,
2013-08-05 13:26:00,76.0,63.6,30.03,SW,218,1.0,8.0,65,0.00,,,0.00,WUHU216DAVISVP2,2013-08-05 17:26:00,
2013-08-05 13:31:00,75.9,63.5,30.03,SSW,201,1.0,8.0,65,0.00,,,0.00,WUHU216DAVISVP2,2013-08-05 17:31:00,
2013-08-05 13:36:00,75.7,64.2,30.03,SW,225,3.0,7.0,67,0.00,,,0.00,WUHU216DAVISVP2,2013-08-05 17:36:00,
2013-08-05 13:48:00,75.6,63.2,30.03,SSW,200,2.0,5.0,65,0.00,,,0.00,WUHU216DAVISVP2,2013-08-05 17:48:00,
2013-08-05 13:53:00,75.1,61.9,30.03,SW,217,1.0,6.0,63,0.00,,,0.00,WUHU216DAVISVP2,2013-08-05 17:53:00,
2013-08-05 13:58:00,74.4,62.1,30.04,SW,222,3.0,6.0,65,0.00,,,0.00,WUHU216DAVISVP2,2013-08-05 17:58:00,
2013-08-05 14:10:00,73.8,62.8,30.03,SSW,194,1.0,5.0,68,0.00,,,0.00,WUHU216DAVISVP2,2013-08-05 18:10:00,
2013-08-05 14:15:00,73.6,62.6,30.03,SSW,194,1.0,5.0,68,0.00,,,0.00,WUHU216DAVISVP2,2013-08-05 18:15:00,
2013-08-05 14:32:00,73.5,63.7,30.01,SE,131,0.0,6.0,71,0.00,,,0.00,WUHU216DAVISVP2,2013-08-05 18:32:00,
2013-08-05 14:37:00,73.7,64.3,30.02,SSW,194,1.0,6.0,72,0.00,,,0.00,WUHU216DAVISVP2,2013-08-05 18:37:00,
2013-08-05 14:42:00,73.9,64.1,30.02,SSW,199,0.0,6.0,71,0.00,,,0.00,WUHU216DAVISVP2,2013-08-05 18:42:00,
2013-08-05 14:54:00,74.5,63.5,30.03,SSW,210,4.0,7.0,68,0.00,,,0.00,WUHU216DAVISVP2,2013-08-05 18:54:00,
2013-08-05 14:59:00,74.5,63.9,30.03,SSW,198,2.0,7.0,69,0.00,,,0.00,WUHU216DAVISVP2,2013-08-05 18:59:00,
2013-08-05 15:16:00,74.4,63.4,30.02,SW,228,2.0,8.0,68,0.00,,,0.00,WUHU216DAVISVP2,2013-08-05 19:16:00,
2013-08-05 15:21:00,74.4,63.8,30.02,SSE,167,0.0,8.0,69,0.00,,,0.00,WUHU216DAVISVP2,2013-08-05 19:21:00,
2013-08-05 15:37:00,74.2,64.0,30.01,South,170,4.0,7.0,70,0.00,,,0.00,WUHU216DAVISVP2,2013-08-05 19:37:00,
2013-08-05 15:43:00,74.0,63.4,30.01,South,170,1.0,7.0,69,0.00,,,0.00,WUHU216DAVISVP2,2013-08-05 19:43:00,
2013-08-05 15:48:00,74.2,64.0,30.02,SW,214,0.0,7.0,70,0.00,,,0.00,WUHU216DAVISVP2,2013-08-05 19:48:00,
2013-08-05 15:59:00,74.4,64.6,30.00,South,188,2.0,6.0,71,0.00,,,0.00,WUHU216DAVISVP2,2013-08-05 19:59:00,
2013-08-05 16:05:00,74.7,64.1,30.00,SSW,210,2.0,6.0,69,0.00,,,0.00,WUHU216DAVISVP2,2013-08-05 20:05:00,
2013-08-05 16:21:00,75.1,64.0,30.00,SE,131,1.0,9.0,68,0.00,,,0.00,WUHU216DAVISVP2,2013-08-05 20:21:00,
2013-08-05 16:26:00,74.8,63.3,30.00,South,176,3.0,9.0,67,0.00,,,0.00,WUHU216DAVISVP2,2013-08-05 20:26:00,
2013-08-05 16:31:00,74.4,63.8,30.00,SW,214,1.0,8.0,69,0.00,,,0.00,WUHU216DAVISVP2,2013-08-05 20:31:00,
2013-08-05 16:43:00,74.7,64.1,30.00,SSE,149,3.0,8.0,69,0.00,,,0.00,WUHU216DAVISVP2,2013-08-05 20:43:00,
2013-08-05 16:48:00,74.5,63.5,29.99,SE,133,0.0,6.0,68,0.00,,,0.00,WUHU216DAVISVP2,2013-08-05 20:48:00,
2013-08-05 16:53:00,74.6,64.4,29.99,SSE,156,0.0,6.0,70,0.00,,,0.00,WUHU216DAVISVP2,2013-08-05 20:53:00,
2013-08-05 17:05:00,74.4,64.2,29.99,SSE,153,1.0,5.0,70,0.00,,,0.00,WUHU216DAVISVP2,2013-08-05 21:05:00,
2013-08-05 17:11:00,74.7,65.3,29.99,SE,141,0.0,5.0,72,0.00,,,0.00,WUHU216DAVISVP2,2013-08-05 21:11:00,
2013-08-05 17:27:00,75.1,64.4,29.99,South,188,3.0,5.0,69,0.00,,,0.00,WUHU216DAVISVP2,2013-08-05 21:27:00,
2013-08-05 17:32:00,75.3,65.0,29.99,SSW,204,1.0,5.0,70,0.00,,,0.00,WUHU216DAVISVP2,2013-08-05 21:32:00,
2013-08-05 17:49:00,75.0,64.3,29.99,SW,219,0.0,6.0,69,0.00,,,0.00,WUHU216DAVISVP2,2013-08-05 21:49:00,
2013-08-05 17:54:00,74.9,63.8,29.99,SW,226,0.0,6.0,68,0.00,,,0.00,WUHU216DAVISVP2,2013-08-05 21:54:00,
2013-08-05 17:59:00,74.9,64.7,29.99,SW,231,1.0,5.0,70,0.00,,,0.00,WUHU216DAVISVP2,2013-08-05 21:59:00,
2013-08-05 18:11:00,74.5,64.3,29.99,SW,228,1.0,7.0,70,0.00,,,0.00,WUHU216DAVISVP2,2013-08-05 22:11:00,
2013-08-05 18:16:00,74.4,63.8,29.99,South,180,2.0,7.0,69,0.00,,,0.00,WUHU216DAVISVP2,2013-08-05 22:16:00,
2013-08-05 18:21:00,74.2,63.6,29.99,SSW,207,1.0,7.0,69,0.00,,,0.00,WUHU216DAVISVP2,2013-08-05 22:21:00,
2013-08-05 18:33:00,74.8,64.2,29.99,SSW,198,1.0,7.0,69,0.00,,,0.00,WUHU216DAVISVP2,2013-08-05 22:33:00,
2013-08-05 18:38:00,74.4,62.9,29.99,SW,228,2.0,6.0,67,0.00,,,0.00,WUHU216DAVISVP2,2013-08-05 22:38:00,
2013-08-05 18:55:00,72.5,61.9,29.99,SW,231,5.0,9.0,69,0.00,,,0.00,WUHU216DAVISVP2,2013-08-05 22:55:00,
2013-08-05 19:00:00,72.2,61.9,29.99,SSW,205,7.0,9.0,70,0.00,,,0.00,WUHU216DAVISVP2,2013-08-05 23:00:00,
2013-08-05 19:05:00,72.0,62.1,29.99,WNW,291,1.0,9.0,71,0.00,,,0.00,WUHU216DAVISVP2,2013-08-05 23:05:00,
2013-08-05 19:17:00,71.3,63.0,29.98,SW,226,5.0,9.0,75,0.00,,,0.00,WUHU216DAVISVP2,2013-08-05 23:17:00,
2013-08-05 19:22:00,71.1,63.5,29.98,WSW,245,4.0,9.0,77,0.00,,,0.00,WUHU216DAVISVP2,2013-08-05 23:22:00,
2013-08-05 19:39:00,70.3,63.6,29.97,SW,233,1.0,8.0,79,0.00,,,0.00,WUHU216DAVISVP2,2013-08-05 23:39:00,
2013-08-05 19:44:00,70.1,63.7,29.97,SSW,195,0.0,7.0,80,0.00,,,0.00,WUHU216DAVISVP2,2013-08-05 23:44:00,
2013-08-05 20:00:00,69.3,62.6,29.97,SSW,200,0.0,3.0,79,0.00,,,0.00,WUHU216DAVISVP2,2013-08-06 00:00:00,
2013-08-05 20:06:00,69.1,62.7,29.98,SW,214,1.0,3.0,80,0.00,,,0.00,WUHU216DAVISVP2,2013-08-06 00:06:00,
2013-08-05 20:22:00,68.2,62.2,29.97,SSW,205,1.0,2.0,81,0.00,,,0.00,WUHU216DAVISVP2,2013-08-06 00:22:00,
2013-08-05 20:27:00,67.9,61.9,29.97,SSW,203,0.0,4.0,81,0.00,,,0.00,WUHU216DAVISVP2,2013-08-06 00:27:00,
2013-08-05 20:44:00,67.4,62.4,29.96,SSE,155,0.0,3.0,84,0.00,,,0.00,WUHU216DAVISVP2,2013-08-06 00:44:00,
2013-08-05 20:50:00,67.2,62.2,29.96,South,190,1.0,2.0,84,0.00,,,0.00,WUHU216DAVISVP2,2013-08-06 00:50:00,
2013-08-05 21:07:00,66.4,61.8,29.96,SSW,210,0.0,2.0,85,0.00,,,0.00,WUHU216DAVISVP2,2013-08-06 01:07:00,
2013-08-05 21:12:00,66.3,62.0,29.96,SW,222,0.0,2.0,86,0.00,,,0.00,WUHU216DAVISVP2,2013-08-06 01:12:00,
2013-08-05 21:28:00,66.1,62.1,29.96,South,186,0.0,1.0,87,0.00,,,0.00,WUHU216DAVISVP2,2013-08-06 01:28:00,
2013-08-05 21:33:00,66.0,62.0,29.96,South,186,0.0,1.0,87,0.00,,,0.00,WUHU216DAVISVP2,2013-08-06 01:33:00,
2013-08-05 21:50:00,65.8,62.5,29.96,SE,130,0.0,0.0,89,0.00,,,0.00,WUHU216DAVISVP2,2013-08-06 01:50:00,
2013-08-05 21:55:00,65.7,62.4,29.95,ESE,123,0.0,0.0,89,0.00,,,0.00,WUHU216DAVISVP2,2013-08-06 01:55:00,
2013-08-05 22:12:00,65.5,62.5,29.96,SE,132,0.0,1.0,90,0.00,,,0.00,WUHU216DAVISVP2,2013-08-06 02:12:00,
2013-08-05 22:17:00,65.5,62.5,29.96,ESE,121,0.0,1.0,90,0.00,,,0.00,WUHU216DAVISVP2,2013-08-06 02:17:00,
2013-08-05 22:22:00,65.5,62.5,29.96,ESE,113,0.0,1.0,90,0.00,,,0.00,WUHU216DAVISVP2,2013-08-06 02:22:00,
2013-08-05 22:34:00,65.4,62.1,29.96,ESE,113,0.0,1.0,89,0.00,,,0.00,WUHU216DAVISVP2,2013-08-06 02:34:00,
2013-08-05 22:39:00,65.4,62.1,29.95,SE,143,1.0,3.0,89,0.00,,,0.00,WUHU216DAVISVP2,2013-08-06 02:39:00,
2013-08-05 22:56:00,65.5,61.9,29.95,SSE,157,1.0,6.0,88,0.00,,,0.00,WUHU216DAVISVP2,2013-08-06 02:56:00,
2013-08-05 23:01:00,65.4,61.7,29.95,SE,146,0.0,6.0,88,0.00,,,0.00,WUHU216DAVISVP2,2013-08-06 03:01:00,
2013-08-05 23:06:00,65.4,61.7,29.95,SE,127,0.0,2.0,88,0.00,,,0.00,WUHU216DAVISVP2,2013-08-06 03:06:00,
2013-08-05 23:18:00,65.2,61.6,29.95,SSE,155,0.0,4.0,88,0.00,,,0.00,WUHU216DAVISVP2,2013-08-06 03:18:00,
2013-08-05 23:23:00,65.0,61.4,29.95,SE,134,2.0,4.0,88,0.00,,,0.00,WUHU216DAVISVP2,2013-08-06 03:23:00,
2013-08-05 23:28:00,64.9,61.3,29.95,SSE,157,0.0,4.0,88,0.00,,,0.00,WUHU216DAVISVP2,2013-08-06 03:28:00,
2013-08-05 23:40:00,64.5,60.9,29.95,SSE,157,0.0,2.0,88,0.00,,,0.00,WUHU216DAVISVP2,2013-08-06 03:40:00,
2013-08-05 23:45:00,64.2,60.9,29.96,SSE,157,0.0,0.0,89,0.00,,,0.00,WUHU216DAVISVP2,2013-08-06 03:45:00,